#timestamp,LO_Frequency,Hit,StdDev 
1505149215.4,286047000.6,N,0.4
1505149235.3,286047001.2,Y,0.0
1505149255.1,286046998.9,P,0.9
1505149275.8,286046998.7,N,0.9
1505149295.7,286046998.9,N,0.9
1505149315.5,286046998.2,N,0.9
1505149335.4,286046998.3,N,0.9
1505149355.2,286046999.5,N,0.8
1505149375.0,286046998.3,N,0.8
1505149375.9,286046998.3,N,0.8
1505149395.8,286047000.2,N,0.8
1505149415.6,286047000.5,N,0.9
1505149435.5,286047000.9,N,1.0
1505149455.3,286047000.3,N,1.0
1505149475.1,286047000.0,N,1.0
1505149495.9,286046999.8,N,0.9
1505149515.7,286047000.0,N,0.9
1505149535.6,286047000.2,N,0.9
1505149555.4,286047000.9,N,0.9
1505149575.2,286047000.7,N,1.0
1505149595.1,286047000.9,N,1.0
1505149596.0,286047000.9,N,1.0
1505149615.8,286047000.7,N,1.0
1505149635.7,286046999.9,N,1.0
1505149655.5,286047000.0,N,0.9
1505149675.3,286047001.0,N,0.9
1505149695.2,286047000.4,N,0.9
1505149715.0,286046999.7,N,0.9
1505149715.9,286046999.7,N,0.9
1505149735.7,286047002.3,N,1.0
1505149755.6,286047000.1,N,1.0
1505149775.4,286047000.4,N,1.0
1505149795.3,286682705.6,Y,0.0
1505149815.1,286047000.2,P,0.1
1505149835.9,286047000.5,P,0.2
1505149855.7,286047000.5,N,0.2
1505149875.5,286047002.4,Y,0.0
1505149895.4,286047000.3,P,0.0
1505149915.2,286047002.8,P,1.2
1505149935.0,286047002.2,N,1.1
1505149936.0,286047002.2,N,1.1
1505149955.8,286047004.4,Y,0.0
1505149975.6,286047000.2,P,0.7
1505149995.5,286047000.1,N,0.7
1505150015.3,286047000.5,N,0.6
1505150035.2,286047000.6,N,0.5
1505150055.9,286047001.0,N,0.5
1505150075.7,286046998.6,N,0.9
1505150095.6,286047001.1,N,0.8
1505150115.4,286047001.1,N,0.8
1505150135.2,286047001.2,N,0.8
1505150155.1,286046999.8,N,0.8
1505150156.0,286046999.8,N,0.8
1505150175.8,286047000.4,N,0.8
1505150195.7,286047000.4,N,0.7
1505150215.5,286047000.3,N,0.7
1505150235.3,286046998.1,N,0.9
1505150255.2,286047001.0,N,0.9
1505150275.0,286047001.1,N,0.9
1505150275.9,286047001.1,N,0.9
1505150295.8,286047001.1,N,0.9
1505150315.6,286046998.9,N,0.9
1505150335.4,286047000.9,N,0.9
1505150355.3,286046998.1,N,1.0
1505150375.1,286047000.9,N,1.0
1505150395.9,286046998.7,N,1.0
1505150415.7,286047000.9,N,1.0
1505150435.5,286047000.9,N,1.0
1505150455.4,286047000.7,N,1.0
1505150475.2,286047000.1,N,0.9
1505150495.1,286047000.2,N,0.9
1505150496.0,286047000.2,N,0.9
1505150515.8,286047002.7,N,1.0
1505150535.6,286047002.8,N,1.1
1505150555.5,286047000.2,N,1.1
1505150575.3,286047000.2,N,1.1
1505150595.2,286047000.2,N,1.1
1505150615.0,286047000.3,N,1.0
1505150615.9,286047000.3,N,1.0
1505150635.7,286047000.4,N,1.0
1505150655.6,286047001.0,N,1.0
1505150675.4,286047000.6,N,1.0
1505150695.3,286047000.3,N,1.0
1505150715.1,286047000.4,N,1.0
1505150735.9,286046999.9,N,1.0
1505150755.7,286047001.0,N,1.0
1505150775.5,286047000.5,N,0.9
1505150795.4,286047001.0,N,0.9
1505150815.2,286047000.8,N,0.9
1505150835.0,286047000.7,N,0.9
1505150836.0,286047000.7,N,0.9
1505150855.8,286047001.0,N,0.9
1505150875.6,286047003.5,Y,0.0
1505150895.5,286047005.4,P,2.4
1505150915.3,286047003.8,N,2.0
1505150935.2,286047001.7,N,1.9
1505150955.9,286047001.7,N,1.7
1505150975.7,286047001.7,N,1.6
1505150995.6,286047001.3,N,1.6
1505151015.4,286047004.2,N,1.6
1505151035.3,286047002.2,N,1.5
1505151055.1,286047000.1,N,1.6
1505151056.0,286047000.1,N,1.6
1505151075.8,286047002.4,N,1.6
1505151095.7,286047002.3,N,1.5
1505151115.5,286047004.2,N,1.6
1505151135.4,286047004.2,N,1.6
1505151155.2,286047001.9,N,1.5
1505151175.0,286047002.4,N,1.5
1505151175.9,286047002.4,N,1.4
1505151195.8,286047002.7,N,1.4
1505151215.6,286047001.5,N,1.4
1505151235.5,286047002.7,N,1.4
1505151255.3,286047002.3,N,1.3
1505151275.1,286047001.3,N,1.3
1505151295.9,286047003.5,N,1.3
1505151315.7,286047002.5,N,1.3
1505151335.6,286047002.6,N,1.3
1505151355.4,286047002.6,N,1.2
1505151375.2,286047002.1,N,1.2
1505151395.1,286047001.3,N,1.2
1505151396.0,286047001.3,N,1.2
1505151415.8,286047004.1,Y,0.0
1505151435.7,286047002.8,P,0.3
1505151455.5,286046999.9,N,1.3
1505151475.3,286047000.2,N,1.3
1505151495.2,286047002.6,N,1.2
1505151515.0,286046999.8,N,1.3
1505151515.9,286046999.8,N,1.3
1505151535.8,286047001.1,N,1.2
1505151555.6,286047001.1,N,1.2
1505151575.4,286047000.0,N,1.1
1505151595.3,286047000.9,N,1.1
1505151615.1,286046999.7,N,1.1
1505151635.9,286047000.9,N,1.1
1505151655.7,286046998.6,N,1.2
1505151675.5,286046998.5,N,1.3
1505151695.4,286046999.0,N,1.3
1505151715.2,286046998.1,N,1.4
1505151735.0,286046998.2,N,1.4
1505151736.0,286046998.2,N,1.4
1505151755.8,286047000.4,N,1.4
1505151775.6,286047002.7,N,1.5
1505151795.5,286047002.7,N,1.5
1505151815.3,286047000.4,N,1.5
1505151835.1,286047000.5,N,1.5
1505151855.9,286047000.5,N,1.4
1505151875.7,286047000.0,N,1.4
1505151895.6,286046999.9,N,1.4
1505151915.4,286047001.9,N,1.4
1505151935.2,286047002.6,N,1.4
1505151955.1,286047000.3,N,1.4
1505151956.0,286047000.3,N,1.4
1505151975.8,286047001.3,N,1.3
1505151995.7,286047001.9,N,1.3
1505152015.5,286047002.5,N,1.4
1505152035.3,286047002.4,N,1.4
1505152055.2,286046999.7,N,1.4
1505152075.0,286047002.6,N,1.4
1505152075.9,286047002.6,N,1.5
1505152095.8,286047002.3,N,1.5
1505152115.6,286047002.2,N,1.5
1505152135.4,286047002.2,N,1.5
1505152155.3,286047000.1,N,1.5
1505152175.1,286047002.4,N,1.6
1505152195.9,286047002.0,N,1.5
1505152215.7,286047001.7,N,1.4
1505152235.5,286047002.1,N,1.4
1505152255.4,286047002.1,N,1.3
1505152275.2,286047002.7,N,1.2
1505152295.1,286047000.1,N,1.0
1505152296.0,286047000.1,N,1.1
1505152315.8,286046999.8,N,1.1
1505152335.7,286047000.2,N,1.1
1505152355.5,286047002.6,N,1.1
1505152375.3,286046998.3,N,1.2
1505152395.2,286046998.5,N,1.3
1505152415.0,286046998.6,N,1.4
1505152415.9,286046998.6,N,1.4
1505152435.8,286046998.3,N,1.5
1505152455.6,286046998.1,N,1.6
1505152475.4,286047000.1,N,1.6
1505152495.3,286047000.9,N,1.6
1505152515.1,286047000.4,N,1.6
1505152535.9,286682705.9,Y,0.0
1505152555.7,286046999.9,P,0.5
1505152575.5,286047000.3,N,0.4
1505152595.4,286047001.1,N,0.5
1505152615.2,286046998.1,Y,0.0
1505152635.1,286046998.2,P,1.2
1505152636.0,286046998.2,N,1.1
1505152655.8,286047000.5,N,1.2
1505152675.6,286047001.1,N,1.2
1505152695.5,286046998.1,N,1.3
1505152715.3,286046998.3,N,1.3
1505152735.2,286046998.8,N,1.2
1505152755.9,286047000.5,N,1.2
1505152775.7,286047000.9,N,1.2
1505152795.6,286046998.5,N,1.2
